Theta_e
307 308 308 308 308 308 309 309 310 310 310 309 308 308 308 307 307 307 307 307 307 308 308 308 308 308 308 309 309 308 309 308 308 309 311 316 320 319 319 320 320 321 319 315 328 338 335 336 338 344 347 344 346 346 346 348 348 350 356 355 353 353 351 351 355 352 352 355 354 356 358 355 354 355 354 355 356 354 355 353 354 355 355 351 351 352 353 352
307 307 307 308 308 308 308 308 309 310 310 310 309 308 308 307 307 307 308 307 307 308 308 308 308 308 309 309 308 308 309 309 310 315 319 322 320 315 315 317 318 321 319 315 330 339 335 337 341 345 347 345 346 346 346 348 348 348 353 355 354 353 353 351 353 354 353 355 355 354 356 354 354 354 355 357 356 355 356 354 354 355 353 351 352 352 352 353
307 307 307 307 308 308 308 308 308 308 309 310 310 309 308 308 308 308 308 308 308 308 308 308 309 308 309 309 309 309 309 312 320 326 328 328 323 316 313 314 317 321 319 316 331 339 334 338 342 344 347 345 345 346 346 346 349 348 348 352 354 353 351 352 354 354 353 353 354 355 355 353 351 352 355 356 357 356 356 354 355 355 352 350 351 352 351 352
306 307 307 307 308 308 308 309 308 308 308 309 311 310 309 309 308 308 308 308 308 308 308 309 309 309 309 309 309 310 311 318 329 334 332 329 325 317 313 313 315 321 319 318 332 338 334 338 342 344 345 344 343 344 345 344 348 347 345 348 353 353 349 352 353 353 353 352 353 356 354 351 351 351 354 357 356 357 356 354 354 354 352 349 350 349 351 352
306 306 306 307 307 308 308 309 309 308 308 308 310 311 310 310 309 309 309 308 308 308 309 308 309 309 309 310 309 310 317 325 331 334 332 326 321 317 314 313 315 320 319 322 334 337 335 338 341 343 343 343 342 342 344 344 347 347 346 346 352 353 348 351 352 352 355 352 354 356 354 351 353 353 354 354 354 355 355 355 353 352 350 349 349 349 349 351
306 306 306 307 307 308 309 309 309 309 308 309 310 311 310 310 309 309 309 308 309 308 309 308 309 309 309 310 309 311 321 328 327 329 327 322 320 319 319 316 314 319 319 324 333 335 336 338 339 342 342 342 340 341 343 344 345 345 346 345 350 352 348 351 353 352 353 352 355 354 352 353 353 354 354 352 352 354 355 354 353 352 351 349 349 348 348 348
305 306 306 306 307 308 308 310 309 310 310 310 310 311 311 310 310 309 309 309 309 308 308 309 308 309 310 311 312 318 326 329 324 325 322 318 319 319 320 319 317 318 319 325 331 334 337 337 338 341 341 340 340 340 341 343 344 343 344 344 348 352 349 351 352 352 352 352 353 351 352 354 354 354 353 352 353 352 354 353 352 351 350 349 349 349 348 348
305 306 306 306 307 308 309 310 310 310 310 311 311 311 311 310 310 310 310 309 309 308 308 308 309 311 312 312 317 325 330 327 323 323 321 319 316 316 318 318 319 318 319 326 330 334 337 336 338 339 339 339 338 338 340 340 342 341 341 343 347 350 351 350 351 352 352 351 352 350 351 352 353 353 352 352 352 352 353 353 352 352 350 350 349 349 348 347
305 305 306 306 307 308 310 310 311 311 311 311 311 311 311 311 310 310 310 309 309 308 307 309 310 313 313 313 319 327 326 322 321 321 322 323 316 313 318 319 320 318 320 327 330 334 336 336 336 337 338 337 335 336 337 337 339 339 341 342 343 345 347 349 350 352 351 350 351 349 348 351 351 350 351 352 352 352 353 352 352 352 350 350 350 350 348 348
305 305 305 306 306 308 310 311 312 311 311 311 310 311 311 310 310 310 310 309 308 308 308 310 313 314 314 316 324 328 324 321 320 319 321 324 318 313 319 322 319 319 322 327 329 332 336 334 334 335 337 336 334 334 335 334 335 338 340 341 341 342 344 344 347 350 351 351 352 349 348 350 350 350 351 352 351 352 352 352 351 352 351 350 350 349 348 348
305 305 306 306 307 309 311 312 312 312 311 310 310 310 310 311 311 310 310 309 308 308 308 312 315 314 315 320 326 326 322 321 319 319 320 324 321 317 322 323 320 321 323 326 330 334 334 333 333 335 336 335 333 333 333 333 332 335 336 338 340 340 342 342 343 347 350 349 351 350 348 349 348 349 352 351 352 353 352 352 351 352 352 351 349 349 349 348
305 306 306 306 307 310 312 312 312 312 311 310 310 310 311 311 310 310 309 309 309 308 309 314 315 313 317 323 327 324 320 319 319 318 319 322 323 322 324 325 322 323 326 329 333 336 335 333 332 334 335 333 331 330 331 331 331 331 331 334 338 339 339 339 341 344 346 349 350 350 346 348 348 347 350 351 351 352 352 353 352 352 352 351 350 350 350 349
305 305 306 306 308 310 312 313 312 312 311 311 311 311 311 310 310 309 308 309 308 309 311 314 315 315 322 329 327 322 317 318 318 317 318 322 323 323 325 327 325 324 330 335 338 337 335 333 333 333 334 332 331 329 328 329 330 330 330 332 334 336 336 337 340 341 344 346 349 350 341 344 348 347 349 350 350 353 352 353 353 353 352 351 350 350 350 349
305 306 306 306 308 310 312 313 313 312 311 311 311 311 310 310 310 309 309 309 308 310 313 315 316 316 325 330 323 318 317 319 319 318 319 320 321 324 325 329 329 328 332 336 339 338 335 333 333 332 333 332 332 330 328 327 329 330 330 331 333 330 330 337 340 339 340 341 349 349 338 343 349 347 349 350 350 352 351 353 353 353 353 351 351 351 350 350
305 306 306 306 307 310 312 313 313 313 312 312 311 311 310 310 310 309 309 308 308 311 312 317 320 320 328 332 322 319 318 321 322 319 318 317 320 324 324 327 330 332 332 335 338 338 336 333 332 332 332 331 331 330 330 329 328 329 326 325 330 328 329 336 337 338 340 339 346 347 340 344 348 346 348 350 350 350 352 353 353 353 353 352 352 351 350 351
305 305 306 306 308 310 312 313 313 313 313 312 312 311 312 312 310 309 309 308 310 312 312 321 327 325 329 329 320 320 319 320 320 317 317 317 319 324 324 325 329 333 333 335 337 337 336 334 333 333 332 331 331 329 330 328 326 328 325 321 325 327 328 332 334 336 337 338 343 344 343 346 348 347 348 351 350 350 351 351 353 353 353 353 352 352 351 351
305 305 305 305 308 310 311 313 313 313 313 313 312 313 314 314 312 310 310 311 311 314 316 322 328 327 327 324 320 320 319 317 317 316 317 317 318 322 326 327 329 331 334 336 336 336 336 335 333 331 332 331 330 330 327 322 321 324 326 322 324 327 327 328 331 336 336 338 342 343 345 346 346 346 348 351 350 349 351 351 353 353 354 354 353 352 351 351
305 305 305 306 307 310 311 312 313 313 312 313 313 314 316 316 316 312 312 315 316 321 325 323 324 326 325 322 320 319 318 317 316 316 317 317 318 319 325 328 328 331 334 335 335 334 334 334 332 331 332 330 331 330 324 321 321 321 322 321 323 326 327 327 330 333 336 337 340 343 345 346 346 346 348 350 350 349 351 351 351 352 354 354 354 352 351 352
305 305 305 305 307 309 311 312 313 313 312 313 315 316 318 319 322 318 315 321 325 328 330 324 324 325 319 318 318 317 317 316 316 316 316 317 318 317 323 328 329 332 333 330 330 332 333 333 332 330 331 330 330 330 326 326 325 323 323 322 321 323 326 330 332 333 337 338 339 342 343 346 346 344 348 349 349 350 350 352 351 352 354 353 353 353 353 352
305 305 305 305 306 309 311 312 313 313 312 315 316 317 319 319 321 321 317 320 325 325 322 317 319 319 315 317 317 316 316 316 317 319 317 317 318 317 320 326 330 332 331 328 327 329 332 332 331 330 329 329 328 329 329 329 327 325 325 324 323 323 324 330 333 333 336 338 339 342 343 346 348 345 346 348 349 349 350 353 352 353 354 352 353 354 353 353
305 305 305 305 306 309 311 312 313 313 313 315 318 318 318 315 316 317 316 316 318 319 317 314 315 316 316 316 316 316 316 317 318 319 318 318 318 317 320 325 329 330 330 328 327 328 330 329 330 330 329 328 327 327 327 328 328 327 324 322 322 323 325 330 334 333 335 337 337 341 341 344 348 345 345 347 348 349 349 353 353 353 354 351 352 354 353 353
305 305 305 305 306 309 312 313 313 313 313 316 319 318 316 315 314 315 315 315 316 316 315 315 315 315 316 315 315 316 315 317 318 319 320 318 318 318 322 326 327 329 330 327 327 327 327 326 328 330 329 327 327 327 327 327 327 327 325 322 320 323 327 328 332 334 333 335 335 339 340 339 345 345 345 346 346 348 350 350 352 352 352 353 352 353 354 353
305 305 305 305 306 309 312 314 314 316 316 316 318 316 315 315 315 314 315 315 316 317 317 316 315 316 316 316 315 315 316 317 318 320 319 318 319 321 324 327 326 327 328 327 326 325 325 327 327 329 328 327 326 326 326 327 327 326 325 320 319 324 324 322 327 333 333 335 337 338 339 338 343 345 346 347 347 349 349 350 352 351 350 351 353 354 354 353
304 305 304 305 306 310 313 316 317 318 317 316 316 315 315 315 315 315 315 316 317 318 318 317 316 317 316 315 315 314 316 317 317 320 318 318 321 322 324 327 326 326 326 326 326 324 325 328 329 328 327 328 327 326 326 325 324 324 325 322 321 324 325 323 327 331 332 334 337 336 332 333 340 343 345 348 350 349 347 349 353 353 351 351 353 354 353 352
304 305 305 304 307 310 313 317 319 317 317 317 317 316 315 314 315 315 315 317 319 318 317 316 315 316 315 314 315 314 316 317 316 318 318 318 320 322 323 325 326 327 326 326 326 325 325 327 329 328 327 327 327 326 326 324 322 322 324 325 323 325 326 326 328 328 326 325 332 334 325 325 336 339 342 346 347 346 345 348 352 353 353 352 353 352 352 352
304 304 305 305 308 311 313 317 318 316 317 317 317 316 315 315 315 314 315 317 318 318 317 316 315 315 315 314 315 316 316 317 317 317 317 317 317 319 320 323 326 326 326 327 326 325 326 327 328 329 328 328 327 326 326 326 322 320 324 326 325 326 325 325 326 325 320 321 330 335 325 322 330 334 338 343 345 346 346 347 351 353 353 354 354 352 352 352
304 304 305 307 309 311 313 315 315 315 318 317 316 315 314 315 314 314 318 318 316 318 317 315 314 314 314 314 314 315 315 316 317 317 318 317 317 318 319 321 323 324 326 326 324 324 326 327 327 328 329 328 327 325 326 327 322 319 326 327 325 325 324 324 324 322 322 324 328 333 330 323 324 330 337 340 342 346 346 345 352 356 354 353 353 352 352 351
305 306 307 309 310 311 313 313 313 315 318 316 315 315 314 315 314 315 320 319 317 318 317 315 315 314 314 314 314 315 315 316 317 317 319 318 318 318 318 318 320 320 323 323 321 325 326 327 326 327 327 326 326 326 326 327 324 323 327 327 326 325 324 325 323 321 322 322 320 324 329 324 322 329 335 338 338 341 346 343 347 355 354 354 353 351 351 350
307 308 310 311 311 313 315 314 315 316 317 316 315 315 315 315 315 317 319 319 318 316 316 315 314 314 314 315 315 315 315 316 316 317 319 318 318 318 318 318 318 319 321 321 322 325 326 327 327 326 326 326 326 326 328 326 326 326 326 327 326 326 325 325 323 321 320 319 316 321 325 323 321 326 331 334 334 337 343 343 344 350 353 354 353 350 350 349
311 311 312 312 312 314 316 316 317 317 317 316 315 314 315 315 316 319 319 319 317 316 315 315 314 315 315 315 316 316 315 316 316 317 317 317 318 319 318 318 319 319 319 320 321 322 324 325 327 327 326 326 327 327 326 327 327 327 326 327 325 325 325 325 323 321 317 315 317 320 324 324 321 324 328 331 333 337 340 342 344 346 351 353 353 351 351 349
312 312 313 313 312 313 315 317 318 317 316 316 315 315 316 316 317 319 320 318 316 316 316 315 315 315 315 315 316 316 316 316 316 317 316 317 318 319 319 317 318 317 317 318 318 321 323 323 325 326 326 327 327 326 326 326 327 326 326 325 321 320 322 321 321 320 316 314 316 321 325 324 320 323 331 334 334 336 337 340 342 343 350 354 352 351 350 349
313 313 313 313 313 312 313 316 317 316 315 315 315 316 317 318 319 318 319 316 314 315 315 316 315 315 315 314 315 315 315 315 316 316 316 317 318 319 319 317 318 317 315 315 316 317 319 322 324 326 326 326 325 324 325 325 326 326 325 322 317 316 318 318 317 317 316 315 317 321 322 320 320 326 333 335 335 335 337 340 340 343 351 355 352 350 351 351
313 314 314 313 313 313 314 315 315 315 315 315 316 316 317 320 320 319 317 315 313 314 315 315 315 315 314 314 314 316 315 314 315 316 316 316 317 318 319 319 319 318 317 317 316 315 316 320 323 325 326 326 325 323 321 322 324 324 322 319 316 315 317 318 318 317 317 316 318 321 320 317 318 324 330 334 334 337 336 338 342 342 349 353 352 350 349 350
314 314 314 313 315 316 315 315 316 315 315 315 316 317 318 320 320 318 317 316 314 315 315 315 314 314 314 313 314 315 314 314 315 316 315 315 315 316 318 320 319 318 318 317 316 315 314 315 319 322 325 326 326 324 323 323 324 324 323 321 318 316 317 317 318 317 317 316 317 319 318 315 316 322 329 330 334 338 335 337 341 341 345 349 351 351 350 351
315 316 316 316 318 318 316 316 316 315 315 316 316 317 319 319 318 315 315 315 315 315 315 314 314 313 313 314 315 315 313 314 315 315 314 315 315 317 319 319 318 318 317 316 316 318 315 316 320 323 324 325 325 325 325 324 322 323 325 322 319 319 319 318 318 319 318 317 317 317 317 319 321 325 329 329 333 336 336 337 338 342 350 353 352 351 350 351
315 318 319 318 319 318 316 316 315 315 315 316 317 318 319 319 317 315 315 315 314 314 313 313 314 313 312 314 315 315 314 313 314 314 314 315 315 318 319 318 318 317 317 316 316 317 316 317 321 322 323 325 325 326 326 324 322 323 323 320 321 324 323 318 317 319 319 318 318 317 317 320 322 324 328 329 331 333 335 337 335 342 352 352 351 350 348 350
315 319 321 319 318 316 315 315 314 315 315 317 318 319 319 317 316 315 315 315 315 314 312 312 313 313 312 313 315 315 314 313 314 314 313 314 315 316 319 318 317 317 316 316 315 316 316 315 319 321 322 323 325 325 326 325 325 323 321 322 325 326 324 321 318 318 319 318 319 318 316 318 318 319 327 328 329 332 333 336 336 337 346 349 350 350 349 349
316 319 320 319 317 315 314 314 315 316 317 318 319 320 319 316 316 315 314 314 314 313 312 312 314 314 313 313 314 315 314 312 314 314 314 314 315 316 318 317 317 317 316 316 315 315 316 314 317 320 321 324 325 325 324 326 328 324 323 325 325 321 320 321 319 319 318 318 319 319 318 318 317 319 326 328 329 330 331 335 336 336 343 350 350 350 349 348
318 322 321 318 317 315 314 314 315 316 318 319 320 319 318 315 315 314 314 314 314 313 313 313 314 314 314 313 313 314 314 313 313 314 313 314 315 316 316 316 316 316 316 315 314 315 316 314 316 319 321 323 325 323 320 322 326 326 325 327 326 322 321 320 320 319 319 318 319 319 318 318 322 326 328 329 329 331 331 334 337 336 340 346 347 350 350 349
321 323 321 317 317 316 315 315 316 318 318 320 319 317 316 316 314 314 313 313 314 313 313 314 314 314 313 314 314 314 314 314 313 313 314 314 314 314 315 314 314 315 314 314 314 314 315 315 315 318 319 320 320 322 322 322 324 324 322 322 322 323 323 322 322 320 319 319 319 320 319 318 325 333 332 332 331 331 332 334 336 338 338 342 345 347 348 347
322 323 320 317 316 315 315 317 317 318 318 319 318 316 316 315 314 315 313 313 313 313 313 313 313 314 313 314 314 314 314 314 313 313 313 313 313 313 314 314 314 313 313 313 314 314 316 315 315 316 317 317 319 323 324 324 325 324 323 322 322 322 321 320 320 320 319 318 319 320 319 320 328 334 332 332 333 331 332 332 334 336 338 338 341 343 344 347
322 322 318 316 316 316 317 318 318 319 318 317 317 315 315 315 314 314 314 313 313 313 313 313 313 313 313 314 314 313 313 313 313 313 313 313 314 313 313 313 313 313 313 312 312 316 317 316 316 317 316 318 320 322 323 322 324 325 325 324 324 323 322 319 318 319 318 318 320 320 319 322 331 337 334 333 334 333 333 333 332 333 335 336 337 339 341 346
322 319 317 316 316 317 317 318 318 318 317 317 317 315 314 315 315 314 314 314 313 313 313 313 313 312 313 313 313 312 312 312 313 313 312 313 313 313 313 313 313 313 312 312 313 316 317 316 316 316 317 318 319 320 321 321 323 323 323 325 325 323 324 323 323 322 319 318 319 319 318 323 331 337 335 334 334 333 332 333 332 332 332 333 333 335 338 343
321 319 318 317 316 316 317 318 318 317 316 316 316 315 314 314 315 314 314 314 314 314 313 313 313 313 313 313 312 312 312 312 312 313 312 313 313 313 313 313 313 312 312 313 314 314 314 316 317 317 318 318 317 316 319 321 322 322 322 324 324 325 325 325 326 325 322 319 320 319 317 322 332 337 335 333 333 332 333 333 331 331 331 331 332 334 335 339
321 320 319 318 316 317 317 317 316 316 316 316 316 315 314 315 315 314 313 313 314 313 313 313 314 313 312 312 312 313 313 312 313 312 313 312 313 313 313 313 313 313 313 314 314 313 313 314 316 318 318 317 315 315 317 320 321 322 323 323 323 325 325 323 323 322 322 322 323 321 319 323 331 336 334 333 332 332 334 336 334 333 332 333 335 338 340 340
322 319 318 318 317 317 317 316 316 316 316 316 316 315 314 315 314 313 312 314 314 313 313 313 313 313 313 312 313 313 313 313 312 313 313 313 312 313 313 312 312 312 313 313 313 311 311 312 314 316 318 318 317 318 318 319 320 320 322 322 322 323 324 323 322 320 322 323 322 324 327 326 331 336 332 332 335 336 337 338 338 337 336 335 337 338 342 343
321 317 317 318 318 317 316 316 316 317 316 316 316 315 314 314 314 313 313 313 313 312 313 313 312 312 313 313 313 313 313 313 313 313 313 313 313 314 313 312 312 312 312 312 312 311 311 310 312 313 314 316 317 317 317 317 317 319 320 320 320 321 321 322 320 320 324 323 320 328 333 328 332 342 341 339 342 340 339 339 339 341 341 340 339 337 340 343
318 317 316 316 316 316 315 315 315 316 316 316 315 314 314 314 314 314 314 313 313 313 312 313 313 313 313 313 313 313 313 314 314 314 314 314 314 313 313 313 313 313 313 312 312 312 311 311 311 311 311 312 313 314 314 315 316 317 319 319 319 320 319 320 320 321 324 323 323 329 333 330 336 343 341 340 341 339 339 339 339 340 343 342 340 339 340 341
318 318 316 315 316 316 314 314 315 315 315 315 315 314 314 314 314 313 313 312 313 313 312 313 313 313 312 312 312 313 314 314 314 314 314 313 313 313 313 312 312 313 313 311 312 312 311 311 312 311 311 311 311 313 313 314 314 315 317 318 318 318 319 320 321 322 323 325 327 330 330 330 336 340 339 339 338 338 339 338 339 340 342 340 339 339 339 340
316 317 318 317 316 315 315 315 315 315 314 314 315 314 313 314 314 313 313 313 313 313 313 313 313 312 312 312 312 313 313 313 313 313 313 313 313 313 312 312 312 312 312 311 312 312 311 311 312 312 312 312 312 312 313 313 314 314 316 317 316 317 318 319 320 322 323 325 327 328 328 329 334 338 337 336 336 337 340 340 340 340 339 338 336 336 339 342
315 315 316 317 316 315 316 316 315 315 314 314 315 314 313 313 313 313 313 313 313 313 313 313 312 312 312 312 313 313 313 313 313 313 314 313 313 313 313 312 312 312 312 312 313 313 312 312 312 312 312 312 312 312 312 312 313 313 314 315 315 316 318 319 321 323 324 325 326 326 325 327 334 339 337 335 336 338 341 340 339 338 340 341 340 341 345 347
315 315 315 317 317 315 316 316 315 315 315 314 313 314 313 313 313 313 313 314 314 313 313 312 313 312 312 312 313 313 314 314 314 314 314 313 313 313 312 312 312 312 311 312 312 313 313 312 312 311 312 312 312 312 313 312 312 312 314 314 315 316 317 319 320 322 324 325 325 325 324 327 337 340 338 337 337 339 339 339 338 341 343 344 343 345 345 345
Wind_Speed
19 20 20 20 20 20 20 20 19 19 19 18 17 16 16 15 15 15 15 15 16 16 16 16 15 16 16 16 14 11 8 8 7 8 7 5 8 13 12 11 13 14 13 11 12 14 16 17 18 18 17 15 15 15 13 13 11 6 1 1 4 5 6 5 4 6 4 4 4 5 4 4 11 11 15 15 15 17 13 12 12 13 14 19 29 34 34 34
19 20 20 20 20 20 20 20 20 19 19 18 18 17 17 16 16 16 16 15 15 15 16 17 16 16 15 13 13 11 9 8 8 10 7 5 9 12 12 11 12 15 16 15 16 18 19 19 19 18 18 15 14 14 13 12 11 9 3 2 4 4 6 4 3 9 5 5 7 5 2 1 9 14 17 12 12 15 10 12 15 17 19 25 32 32 33 34
20 20 20 20 20 20 20 20 20 19 19 18 18 18 18 17 17 17 16 16 16 16 16 16 16 15 13 11 12 12 10 8 9 9 6 5 8 10 12 12 13 16 17 18 16 17 17 17 17 17 17 14 14 14 12 11 10 10 7 5 6 7 9 7 6 8 11 12 8 4 7 4 3 9 17 11 12 13 8 13 16 19 25 29 31 31 34 32
20 20 20 21 21 20 20 20 19 19 18 18 18 18 18 18 18 18 17 17 17 16 16 15 15 14 11 11 12 13 11 8 5 2 3 6 8 9 12 11 13 16 18 17 15 16 16 14 15 16 16 13 14 15 12 11 9 9 9 6 5 8 7 6 7 7 14 15 6 7 9 8 6 7 12 11 9 7 8 14 18 22 28 31 31 33 33 30
20 20 20 21 21 21 20 20 19 18 17 17 17 17 18 18 18 18 17 17 17 17 16 15 14 12 12 11 12 12 9 4 2 3 5 7 7 7 10 11 12 15 17 18 15 16 17 15 15 16 15 11 13 13 12 14 11 8 10 10 7 11 7 4 8 9 14 17 11 10 4 3 10 10 8 11 7 5 9 14 20 25 30 32 33 34 33 31
21 20 21 21 21 21 21 20 19 18 17 16 16 17 17 18 18 18 17 17 16 16 16 14 13 12 12 12 13 10 5 3 3 4 7 5 6 5 5 8 11 15 17 19 16 16 18 17 15 15 14 11 12 11 11 15 13 8 9 13 8 9 7 4 7 9 9 11 10 6 3 5 8 12 6 9 8 10 12 14 21 26 30 32 33 33 33 33
21 21 21 22 22 22 21 21 19 17 16 16 16 16 16 16 17 17 17 17 16 16 14 13 13 13 12 12 12 8 8 6 2 6 10 6 5 4 4 6 11 16 20 21 18 17 18 19 17 16 12 9 12 12 13 14 15 11 9 13 5 9 10 7 5 7 12 12 5 3 6 9 11 11 5 9 10 12 12 15 24 26 29 31 31 32 32 33
22 21 22 22 22 22 21 20 19 18 16 15 15 15 15 15 16 16 17 16 15 15 13 13 13 11 11 9 9 9 11 5 3 8 13 12 9 6 6 7 12 18 23 24 18 17 18 19 18 15 11 10 11 12 14 13 13 13 11 13 8 12 15 10 8 9 11 11 5 3 4 5 15 13 4 8 13 14 13 18 26 26 27 30 31 31 31 32
21 21 21 22 22 22 21 20 19 17 16 16 15 14 15 14 15 15 16 16 15 13 13 13 11 9 10 7 7 9 4 2 4 7 10 13 11 6 6 8 14 21 24 23 18 17 17 18 18 16 12 11 13 13 14 12 9 11 13 15 13 13 13 9 11 11 11 10 6 6 4 3 15 16 8 10 14 14 17 21 24 26 27 29 29 30 30 31
21 21 21 22 22 22 21 20 19 17 16 16 15 14 14 14 14 15 14 15 13 11 13 12 10 10 9 5 8 7 1 3 5 6 7 9 9 5 5 7 15 22 22 19 17 18 18 16 16 16 15 13 14 13 14 12 9 13 14 13 14 15 16 11 11 11 11 10 7 7 3 4 6 8 7 10 13 14 17 22 24 25 27 29 28 29 30 30
21 20 21 22 22 22 20 20 18 17 16 15 15 14 14 13 13 13 12 13 12 11 12 9 11 11 5 5 11 7 3 7 7 6 6 5 5 3 6 8 15 21 19 17 17 17 18 16 14 14 13 11 13 13 14 16 14 17 17 12 12 15 16 14 13 12 10 9 10 8 3 5 6 5 9 13 15 15 17 21 23 24 26 27 27 28 30 29
20 20 20 21 22 22 21 20 18 16 16 15 15 14 14 13 12 12 11 11 10 11 10 7 11 9 4 8 13 7 9 9 7 6 5 3 3 4 7 9 14 18 17 16 15 16 17 17 16 15 13 10 11 10 9 13 16 18 17 12 13 13 13 15 15 15 11 9 10 7 4 6 7 6 13 16 18 17 17 20 22 23 24 25 27 28 28 28
20 19 20 20 20 21 21 20 18 17 16 15 15 15 14 12 11 11 9 8 9 9 7 6 10 6 4 9 8 6 10 6 5 3 3 3 4 6 8 9 13 16 16 15 13 13 16 16 17 17 17 14 11 9 7 9 12 14 13 10 11 10 11 14 16 17 14 12 11 9 5 7 8 9 17 18 19 19 18 20 21 23 23 24 27 27 27 28
20 19 20 20 19 20 20 19 18 17 16 16 16 15 12 10 10 9 7 8 7 6 4 5 9 4 6 9 3 5 9 2 3 0 1 3 5 6 9 9 12 15 15 15 13 11 14 15 17 17 18 18 15 13 12 10 8 9 10 9 9 8 9 12 15 17 14 13 15 11 6 5 6 10 19 21 19 20 19 19 20 22 23 25 26 27 27 28
20 19 19 20 19 20 20 19 18 17 16 16 16 13 10 10 10 6 6 7 5 4 2 4 7 4 8 10 5 4 10 4 2 1 3 5 6 8 9 11 12 13 14 15 12 10 12 14 16 16 16 17 16 14 11 8 7 7 9 8 9 9 9 12 13 16 15 14 19 15 7 5 6 8 18 20 19 19 19 19 19 21 23 25 26 26 27 27
20 19 19 19 20 20 20 19 18 16 14 14 15 11 9 11 8 4 6 6 4 3 2 1 6 7 9 5 4 5 7 5 3 3 6 6 7 8 8 11 12 12 14 14 12 10 10 13 16 16 15 13 11 10 8 7 7 7 9 8 10 10 9 10 11 16 17 13 16 16 9 4 6 10 19 23 20 20 19 18 20 21 22 24 25 25 26 27
20 20 19 19 19 20 21 20 20 17 14 13 12 9 8 11 6 3 5 5 4 5 3 2 5 10 10 5 5 6 4 6 6 7 7 6 8 8 6 10 12 12 14 12 11 11 11 12 12 12 12 10 8 9 8 8 8 7 9 9 11 12 10 9 10 14 19 15 14 16 11 5 4 10 20 23 20 20 18 17 18 19 21 23 24 25 26 28
20 20 19 20 20 21 21 21 21 18 16 14 11 10 9 9 7 6 6 6 6 6 5 5 5 8 8 7 6 5 5 8 7 7 6 6 8 8 6 9 11 12 13 11 13 14 12 12 11 9 9 9 9 9 9 10 10 9 9 9 10 13 12 11 11 11 18 17 14 14 13 10 8 10 17 19 20 19 17 17 18 18 19 20 23 24 25 27
21 20 20 20 20 22 21 21 21 17 16 13 10 11 9 9 9 5 4 6 7 6 5 4 8 7 6 4 5 6 8 9 8 6 4 5 7 8 8 9 10 13 13 9 12 16 12 10 10 8 8 11 12 13 13 13 13 13 11 10 10 11 12 12 12 11 15 16 13 13 12 11 10 9 12 17 19 16 16 16 15 17 19 19 20 23 24 26
21 21 21 21 21 22 21 21 20 16 14 12 14 14 10 11 8 1 7 9 13 12 11 7 7 10 10 6 5 9 11 7 6 5 3 5 6 9 11 11 11 13 12 9 10 15 13 9 9 11 12 15 16 17 17 16 16 17 15 12 12 11 11 13 13 12 12 12 12 14 13 11 12 9 10 18 17 12 14 16 11 11 16 19 20 21 24 25
22 22 22 21 21 21 21 20 19 14 11 11 14 14 11 12 7 5 14 14 14 13 13 10 9 11 11 8 8 11 9 6 4 1 1 4 7 8 11 13 11 9 11 12 11 13 13 10 11 15 16 16 16 17 18 17 17 17 15 13 12 10 10 13 14 14 14 11 11 13 14 13 13 11 10 16 16 10 13 18 14 13 15 18 21 22 23 24
22 22 22 22 21 20 20 19 15 11 10 9 10 9 9 10 8 9 13 14 16 13 10 9 10 10 8 6 6 6 7 8 7 5 2 4 9 9 9 12 11 8 11 13 11 10 11 11 14 17 16 16 17 16 17 18 17 14 12 11 10 9 9 12 15 15 13 9 9 11 13 12 12 15 13 14 15 12 17 21 21 24 22 16 18 22 23 22
22 23 23 22 20 20 19 15 11 9 12 11 7 7 9 9 8 10 10 12 15 13 10 11 10 8 6 3 2 5 8 10 5 7 3 4 10 10 8 9 10 10 11 12 12 10 9 10 15 17 15 16 17 17 17 15 14 12 11 10 9 10 10 8 11 15 14 9 10 11 11 10 11 15 15 16 19 18 22 25 23 29 29 19 16 19 22 23
22 23 23 22 21 19 15 10 9 9 10 9 5 5 9 10 9 11 11 11 11 9 8 8 8 6 4 4 4 7 9 8 5 3 3 5 8 7 8 10 10 10 11 13 15 14 12 11 14 17 17 18 17 17 17 13 10 12 14 13 9 12 14 11 10 13 13 11 13 13 9 8 11 15 14 18 24 22 22 23 21 27 31 24 18 18 21 24
22 23 23 21 21 19 12 6 7 8 9 7 4 6 10 11 10 10 9 9 7 6 7 6 6 6 4 5 6 6 8 7 7 2 1 5 7 5 7 9 9 9 11 15 16 14 14 14 14 16 17 18 17 15 16 13 9 11 15 16 14 13 15 15 16 12 8 10 13 12 9 7 10 15 15 17 20 19 18 19 20 26 30 28 25 25 26 24
22 23 22 20 20 19 12 5 6 9 10 6 5 9 11 11 10 9 6 6 4 6 8 7 6 5 4 4 6 7 7 4 3 2 2 5 8 7 7 7 8 9 11 12 11 8 11 16 16 15 15 18 18 15 15 15 10 9 10 14 17 16 16 16 17 12 6 9 10 12 9 7 8 12 14 16 18 19 19 19 22 26 27 29 29 27 26 25
21 21 20 18 19 20 14 8 6 8 9 8 7 10 11 11 11 7 4 6 3 6 8 7 4 3 2 2 4 7 5 1 3 4 4 3 5 6 7 7 7 9 10 9 8 7 9 16 17 16 15 15 15 13 14 15 11 8 9 12 16 17 17 17 15 11 8 10 11 11 11 8 7 10 13 16 19 20 21 20 22 24 24 26 28 26 25 25
20 20 19 17 17 17 13 8 5 6 9 11 11 10 9 10 9 4 5 4 2 6 6 5 2 1 3 3 6 8 5 5 6 5 5 3 4 6 7 9 10 10 11 9 8 8 10 14 16 17 16 11 11 12 14 16 12 9 13 13 10 13 15 16 13 10 9 10 11 11 11 7 6 10 12 15 18 19 20 21 20 22 26 28 28 29 28 26
19 19 19 18 16 13 11 9 6 6 9 11 11 10 9 10 7 4 6 3 3 5 3 4 3 3 6 7 8 7 6 7 5 3 3 7 6 7 8 9 11 13 13 12 10 10 11 12 14 16 14 10 11 13 13 15 13 10 14 14 9 8 8 11 11 10 11 10 10 11 11 8 7 9 11 12 15 16 16 17 17 22 31 35 33 32 30 29
19 19 20 19 15 10 9 10 7 6 9 11 12 11 10 8 5 5 5 2 3 5 4 3 3 4 5 8 8 7 4 6 4 2 5 8 8 10 10 10 10 10 11 12 11 13 15 14 13 13 13 12 13 13 15 17 14 11 12 14 11 6 4 6 7 7 9 10 11 13 13 12 9 7 10 11 11 13 15 15 16 21 30 35 34 32 30 29
20 20 19 19 15 7 8 10 5 6 10 13 12 10 9 6 4 6 3 2 2 3 5 3 2 3 4 7 4 5 3 4 3 5 6 6 9 11 9 9 8 7 8 9 10 12 16 16 12 10 15 17 12 12 15 14 12 10 10 10 9 6 4 6 6 7 9 9 10 14 16 16 11 7 9 10 12 14 15 15 19 20 27 36 36 34 32 30
20 19 17 15 11 5 6 7 7 9 10 11 11 8 8 4 6 7 3 3 2 2 2 3 3 1 1 5 3 3 2 2 2 4 6 5 6 6 6 4 2 4 6 7 8 10 12 13 13 11 16 18 12 9 11 10 9 11 10 10 9 7 6 7 7 7 8 9 10 13 16 14 11 11 12 11 13 16 15 15 23 23 26 37 37 34 33 32
18 17 15 10 5 4 4 6 9 10 9 9 10 8 6 5 6 5 3 2 2 2 1 2 2 1 2 5 2 4 2 3 1 2 4 4 7 5 2 3 6 6 6 6 7 7 8 12 15 14 11 14 13 9 8 9 11 13 11 10 9 7 7 8 8 8 8 10 12 15 14 12 10 12 16 16 13 17 19 17 22 29 30 37 37 32 30 30
16 14 10 6 6 9 11 8 9 10 10 9 8 7 6 6 4 4 2 4 6 2 1 1 2 4 6 5 2 3 4 3 1 4 4 3 7 6 1 7 9 7 7 7 7 6 8 8 13 15 10 11 15 12 10 10 11 12 11 10 10 8 8 7 6 7 8 9 13 16 13 10 9 8 13 17 16 17 22 19 20 25 27 32 34 31 29 29
13 10 9 8 9 11 12 9 8 9 9 8 7 6 6 6 3 5 5 5 5 2 1 1 5 7 7 5 2 1 3 1 2 2 6 6 4 2 4 7 9 8 6 5 5 7 10 9 8 16 18 15 16 14 14 14 10 10 10 10 10 9 8 7 7 8 9 8 10 11 9 8 8 8 11 15 16 18 17 17 21 22 29 33 31 29 28 29
9 5 7 6 6 8 7 7 8 7 7 8 6 5 4 3 5 6 6 7 6 6 7 4 6 7 6 5 6 6 3 3 3 2 5 7 3 2 6 6 7 8 8 5 5 7 7 11 11 8 14 17 18 17 16 15 10 6 11 11 10 11 10 9 10 10 10 9 8 8 9 9 8 9 13 15 17 18 14 16 19 21 35 37 32 31 29 29
7 3 4 4 4 7 6 5 6 5 7 7 5 5 5 4 9 8 7 8 6 5 8 6 2 3 4 3 4 8 6 3 3 1 4 5 3 1 4 7 7 8 9 8 5 6 8 11 16 15 12 14 19 19 17 18 16 9 8 10 10 12 11 8 8 8 9 9 7 8 11 11 8 8 11 16 18 18 17 19 18 17 29 32 31 33 31 30
6 3 1 2 4 8 6 2 3 4 7 7 6 8 7 3 10 11 9 8 7 4 7 6 2 2 6 4 2 7 2 2 2 1 5 3 2 7 7 4 6 8 9 10 6 5 9 10 12 14 14 12 14 16 14 18 21 17 11 8 8 10 10 8 7 7 9 8 6 10 13 11 9 8 10 15 18 16 18 20 16 11 17 26 29 30 29 29
6 5 1 1 5 6 4 1 3 6 6 6 5 4 4 3 10 12 11 8 6 5 6 6 4 1 4 5 5 4 3 3 4 3 4 2 2 6 8 5 6 8 11 11 8 6 8 8 10 13 15 12 8 10 11 13 17 17 16 12 9 8 8 9 8 7 8 8 7 9 11 9 7 8 11 15 16 15 17 18 13 10 12 21 27 29 30 30
8 8 1 6 7 4 2 4 6 7 6 5 4 3 3 5 9 9 10 8 6 4 5 7 6 2 4 5 3 4 3 2 4 6 2 3 1 4 9 9 6 8 12 10 8 8 7 7 9 13 15 13 7 7 10 11 12 12 13 12 10 8 8 9 9 9 8 7 7 7 8 7 6 8 10 11 13 14 14 13 12 15 18 21 25 28 31 32
10 7 4 8 6 1 4 8 7 7 5 3 5 3 5 6 5 5 5 5 6 2 2 7 6 4 7 6 4 5 5 1 4 4 3 4 2 4 8 11 9 8 10 9 7 5 5 6 8 11 10 9 9 8 9 12 12 11 11 11 12 9 9 10 10 10 10 8 7 7 7 6 4 8 9 10 11 14 15 13 11 15 22 24 26 29 31 33
10 4 7 9 3 1 6 8 4 4 2 3 3 3 7 5 6 4 5 1 3 2 1 4 3 4 6 5 7 7 4 4 6 4 6 5 6 9 7 11 11 9 8 7 7 7 7 6 8 10 10 12 16 17 16 17 18 15 12 11 13 12 10 9 8 9 10 10 9 8 8 4 3 4 7 12 12 13 16 16 13 15 22 23 23 27 31 35
9 4 8 7 5 5 8 4 2 2 3 4 3 3 5 4 6 4 1 1 1 4 4 2 4 3 3 4 5 6 5 4 5 5 8 7 7 11 8 11 12 10 8 6 5 8 8 6 7 8 10 13 19 21 18 18 17 13 10 10 11 13 13 11 9 9 9 10 11 7 8 6 3 7 1 7 7 8 13 16 17 19 21 22 25 26 30 38
10 6 3 3 6 6 6 1 3 2 3 2 1 4 1 3 6 8 6 2 1 6 4 3 5 4 4 5 5 6 7 5 3 4 7 6 4 12 10 8 9 7 6 5 6 8 6 5 6 7 8 9 12 13 12 13 11 7 7 11 13 16 18 13 8 9 9 11 13 10 8 8 1 5 1 2 2 4 4 7 12 17 19 20 21 19 20 34
10 6 6 4 8 6 3 3 5 3 3 2 1 3 0 1 4 7 10 6 5 9 7 3 4 4 4 8 6 5 7 6 4 5 5 5 6 10 12 10 8 5 4 8 9 9 6 5 6 7 7 8 8 6 5 7 7 6 8 12 15 19 19 12 6 8 8 10 11 8 6 7 5 5 5 5 8 5 7 9 4 7 10 8 6 12 5 21
8 4 7 7 8 9 7 8 8 5 3 2 1 3 3 1 4 3 7 8 4 6 8 4 5 4 2 6 7 6 8 7 6 7 6 6 7 6 8 9 7 7 7 7 9 8 6 6 8 10 10 11 10 9 11 12 10 9 11 14 15 17 17 12 9 9 7 8 9 6 5 8 6 4 6 7 5 5 10 11 12 8 4 12 18 18 15 9
7 5 6 6 6 7 8 10 9 6 4 4 2 3 4 2 2 4 3 5 3 3 5 3 5 5 3 5 7 6 8 9 7 9 8 7 8 8 7 8 8 7 8 10 10 7 5 7 11 14 15 17 19 18 17 16 14 14 15 16 16 17 18 15 10 11 11 9 9 7 6 5 5 9 6 6 11 13 12 11 14 14 14 16 14 10 13 13
6 5 6 5 5 5 6 7 8 6 7 7 3 3 4 1 2 2 2 2 4 2 4 3 1 4 5 6 7 6 7 8 6 7 8 7 8 9 7 6 6 3 3 9 12 8 6 8 11 15 17 19 22 20 18 17 16 17 18 18 17 18 18 16 15 17 15 11 8 5 5 5 5 11 11 11 13 11 11 13 13 13 15 17 15 13 14 10
10 6 8 7 3 3 4 4 5 5 6 6 2 2 5 3 2 3 2 2 4 3 5 4 4 4 6 7 6 6 7 7 7 6 7 8 8 8 7 6 5 3 3 8 10 8 6 8 11 14 16 19 21 19 18 18 17 19 20 18 16 19 20 18 18 19 18 15 13 8 10 9 6 9 5 11 13 10 10 12 12 15 19 22 21 18 18 15
11 7 7 7 5 6 5 4 4 2 3 0 1 2 4 5 4 4 3 4 6 3 4 6 7 7 8 8 7 8 7 7 8 8 9 9 8 7 6 6 5 4 6 7 6 4 4 6 11 12 12 15 18 18 18 18 18 21 21 17 17 20 21 19 17 17 16 16 17 12 12 12 5 9 5 9 12 11 12 12 12 15 18 19 19 15 15 18
9 7 6 8 4 3 5 3 3 3 1 1 2 4 3 4 4 4 5 5 7 5 4 7 8 8 8 8 8 9 9 9 10 11 12 11 10 9 8 7 7 6 6 7 6 4 5 6 8 9 9 11 13 16 18 18 20 22 21 19 20 20 18 15 14 13 13 15 16 12 10 9 2 3 6 8 8 10 14 13 13 15 15 15 15 13 15 20
7 7 7 7 2 2 5 4 4 3 2 5 5 4 3 3 3 4 5 4 5 5 4 7 9 8 7 8 9 10 12 12 13 15 16 15 16 16 14 13 13 10 7 7 7 6 6 7 6 6 8 9 12 16 17 15 15 15 15 19 21 20 18 15 14 14 15 14 11 8 9 7 2 9 9 9 9 11 11 11 12 13 14 14 15 15 17 20
Wind_Direction
360 357 355 353 352 349 347 345 344 344 345 346 344 342 339 336 335 333 334 336 336 337 338 338 338 337 333 335 335 328 310 298 291 272 255 223 217 226 222 219 220 212 212 195 172 183 189 190 198 203 208 213 224 235 241 236 226 219 139 194 276 293 286 338 11 268 250 263 249 184 251 91 128 155 134 131 134 134 143 135 123 129 137 136 136 142 147 149
359 357 355 353 351 349 346 343 343 342 342 343 343 343 340 336 334 331 332 333 335 335 336 337 336 336 336 340 344 336 320 308 285 274 274 244 239 240 228 221 212 206 203 184 178 192 193 193 196 200 208 214 223 226 234 234 217 216 210 202 247 269 275 320 291 265 303 291 251 178 221 126 166 152 127 131 133 133 140 128 122 128 134 131 135 144 149 152
358 357 355 353 352 349 346 343 342 341 340 340 341 342 340 337 333 332 332 332 334 334 336 336 334 336 335 342 345 339 332 315 291 281 280 264 258 244 227 219 211 206 203 187 186 202 200 201 198 200 211 217 226 220 224 225 211 222 228 225 234 242 266 281 259 289 309 285 285 217 183 154 181 129 121 132 127 134 149 132 128 137 143 140 142 148 150 154
356 356 353 352 351 349 348 345 343 341 338 338 339 339 338 337 334 333 332 331 332 332 335 333 333 335 332 337 338 342 338 309 287 234 241 289 290 252 225 216 211 207 204 187 189 212 210 212 206 206 216 223 232 225 227 225 211 218 229 245 208 210 254 252 230 256 249 241 269 240 191 145 170 137 123 138 135 145 156 142 140 146 149 146 147 152 154 156
354 354 351 350 351 350 348 345 345 342 339 337 336 336 336 337 334 334 332 331 331 331 333 330 334 335 329 330 325 337 337 312 114 171 265 307 310 264 223 217 214 207 204 185 191 222 217 217 212 211 221 231 237 228 226 225 224 228 244 267 194 191 239 226 236 252 221 213 216 215 202 176 160 131 120 132 138 151 152 155 148 149 152 149 150 156 159 159
352 352 349 348 349 349 348 346 346 343 341 338 336 335 334 334 333 333 331 330 330 328 330 330 334 332 326 321 317 329 315 318 81 243 281 319 313 281 219 221 215 203 198 187 201 229 218 216 215 213 222 232 241 238 230 219 226 242 251 261 208 187 249 228 236 275 258 237 225 176 158 235 125 105 127 111 114 139 148 162 148 149 155 152 153 157 162 163
350 349 347 347 348 349 348 346 346 344 343 340 337 335 332 332 331 331 330 328 329 326 327 331 333 331 325 317 317 313 264 272 10 298 297 305 294 273 234 230 211 197 191 192 213 229 215 215 215 216 222 229 242 244 246 231 226 235 246 259 214 172 226 225 218 269 277 266 251 147 179 195 116 106 140 95 107 135 141 155 146 151 157 154 155 159 164 164
347 347 345 345 347 348 348 347 347 344 343 341 338 335 331 330 328 330 329 327 326 324 328 331 333 332 325 322 318 291 255 250 25 331 314 305 295 264 250 237 206 191 188 193 214 224 214 217 217 219 223 229 241 241 248 248 234 233 242 257 236 201 219 218 216 238 260 264 268 254 221 162 121 121 157 123 127 140 145 149 144 151 159 156 156 161 166 165
345 345 344 344 345 347 347 348 346 345 343 341 339 335 332 329 328 329 326 326 324 322 331 331 334 334 322 322 306 283 253 84 17 332 326 314 304 268 247 238 202 187 189 197 215 224 216 219 220 221 231 240 246 247 249 250 243 236 235 245 247 242 241 221 217 226 237 252 259 239 248 88 116 122 153 152 139 151 154 149 146 152 160 160 159 164 168 167
345 344 343 343 344 345 347 347 346 345 343 341 339 337 334 329 327 328 325 324 319 322 333 335 339 329 319 320 294 279 137 32 332 320 324 314 305 262 210 218 197 186 192 205 218 225 220 222 224 225 239 254 255 255 254 253 260 256 248 245 245 250 253 243 234 234 232 239 240 240 232 101 129 138 151 149 145 158 154 149 151 155 162 163 164 167 168 170
345 344 342 342 343 344 346 345 345 344 342 342 340 339 335 329 326 324 323 320 316 324 331 337 338 325 319 296 279 285 345 321 313 304 301 305 297 237 175 192 196 188 194 208 217 225 224 224 230 231 235 248 259 264 262 261 268 267 269 271 253 246 251 251 247 235 226 232 226 235 219 151 213 199 157 162 156 159 158 152 155 158 162 165 168 166 166 173
345 344 341 341 342 343 345 344 344 343 341 342 341 339 333 328 326 321 319 316 316 323 326 338 338 330 329 283 263 288 338 320 306 280 269 280 258 209 181 194 199 193 198 211 220 226 227 229 234 238 237 238 250 263 276 271 267 265 265 271 263 255 252 246 245 238 226 233 211 195 231 209 214 159 148 168 162 159 162 156 158 160 161 166 168 164 166 173
343 342 340 341 341 342 343 343 342 340 341 343 341 338 332 330 325 319 316 316 320 322 327 347 338 332 307 288 253 300 333 321 314 289 220 253 239 211 205 204 201 202 209 222 229 226 228 232 237 242 248 252 253 261 286 278 265 264 259 258 262 263 255 237 233 232 225 229 204 175 223 212 190 158 149 165 166 164 167 164 165 161 160 168 168 166 168 172
341 342 340 339 341 341 343 342 339 337 338 342 341 338 335 333 325 319 317 319 326 325 337 345 337 332 277 277 238 334 353 351 287 351 170 260 240 220 213 208 209 212 220 234 238 232 229 233 241 248 251 254 263 272 277 268 254 258 255 246 246 251 255 239 221 220 219 217 200 191 230 196 181 175 154 160 170 168 171 172 170 164 162 167 168 169 171 172
339 340 339 339 340 341 343 344 340 335 334 339 341 340 341 340 330 320 325 329 331 323 328 343 348 339 268 258 221 329 12 36 224 207 280 278 247 226 214 213 216 217 223 233 239 241 234 231 237 245 249 250 261 271 271 267 254 245 247 240 234 237 251 249 226 212 214 209 196 201 237 198 186 181 153 160 174 171 173 177 177 171 164 165 168 170 172 173
336 339 339 339 340 340 342 343 342 337 334 336 337 343 352 348 334 309 337 343 334 319 262 319 351 323 285 276 220 268 348 359 315 306 280 274 248 233 218 213 214 219 222 225 234 246 242 234 234 238 244 247 249 252 255 261 253 233 234 236 232 232 236 247 239 215 208 207 197 201 234 214 182 180 158 159 174 177 175 180 184 175 166 166 167 171 174 174
335 337 340 340 339 341 342 342 343 341 340 341 340 346 350 348 338 302 342 340 320 321 266 246 318 292 266 269 268 256 316 335 324 312 280 256 241 243 228 208 211 214 213 218 228 236 237 229 230 234 237 242 237 236 240 242 241 224 222 235 240 240 237 235 245 220 199 202 203 199 219 224 185 181 159 156 178 184 176 181 188 176 169 170 168 172 176 175
336 337 340 340 340 341 342 342 343 342 347 353 350 345 343 347 333 299 324 327 311 312 284 241 246 275 255 247 280 279 315 323 312 301 274 242 230 239 231 210 210 204 202 216 219 220 226 218 218 227 224 230 232 227 226 226 234 231 216 223 235 242 247 235 244 229 189 194 210 199 211 216 189 168 146 158 191 192 174 179 188 177 171 174 171 174 176 177
335 336 340 341 341 342 342 343 342 343 351 3 4 354 346 336 316 287 344 326 274 277 301 226 214 278 301 267 295 301 299 302 293 282 251 235 224 223 226 215 209 202 201 210 203 205 215 209 213 227 218 218 221 221 229 231 238 251 242 230 230 232 243 238 243 236 184 185 213 205 210 207 182 167 145 164 197 199 177 179 187 176 171 180 179 175 177 180
335 337 339 341 343 342 342 342 340 342 352 13 19 6 356 341 320 292 4 307 254 262 291 280 249 283 303 299 312 311 298 272 267 282 228 220 218 215 220 214 206 206 211 213 196 198 210 216 213 219 223 221 222 224 235 243 246 260 263 250 240 231 237 237 238 237 199 188 212 210 213 201 175 190 178 170 194 208 174 171 177 168 172 186 188 179 177 180
335 336 339 341 342 342 342 341 340 344 355 14 13 3 4 2 348 340 341 311 270 269 271 276 282 280 290 304 309 312 303 254 240 287 212 215 214 215 206 204 209 207 214 222 211 198 208 228 223 220 228 229 230 228 232 246 249 256 265 267 259 243 240 236 233 234 217 205 212 206 212 211 185 189 190 173 187 203 177 173 171 176 194 199 191 183 179 180
335 337 340 340 340 344 343 342 345 357 12 9 356 357 8 4 343 326 327 305 292 287 258 260 275 266 266 285 290 291 283 268 241 184 196 232 216 217 190 193 219 214 208 220 221 206 207 229 231 227 231 231 237 236 230 239 248 253 258 264 267 262 254 238 234 236 225 213 215 210 211 216 195 180 180 178 187 203 194 182 175 183 197 205 196 185 179 180
335 336 339 338 340 345 345 353 6 13 22 15 354 2 3 349 335 325 311 291 291 281 249 245 251 249 251 260 264 255 264 276 247 151 132 241 223 227 207 200 227 227 216 215 216 220 217 222 229 232 234 231 233 238 235 232 238 248 251 251 250 257 264 245 229 233 234 217 199 213 219 215 203 185 177 181 190 203 196 181 175 182 187 199 201 186 179 182
335 335 339 338 338 344 348 8 22 5 4 358 354 17 357 342 338 331 311 284 278 264 241 233 235 242 265 277 256 258 272 282 274 117 102 241 234 238 233 226 234 233 227 224 223 231 237 226 219 226 233 235 232 231 236 235 230 234 240 249 248 246 258 266 255 235 231 229 211 212 227 217 208 201 186 183 193 205 197 178 173 178 182 192 192 184 189 187
335 334 339 338 335 341 346 4 13 350 329 317 338 5 349 344 340 335 320 281 257 227 204 198 215 225 251 260 232 255 279 266 264 284 131 251 263 269 259 246 243 246 237 230 229 233 242 239 224 219 223 231 236 230 227 232 238 233 229 239 250 256 256 262 272 257 222 239 227 204 220 228 210 212 203 186 191 204 197 174 172 179 178 180 184 189 195 188
334 333 338 338 333 338 344 341 324 317 318 323 345 341 341 345 331 326 320 276 234 166 172 183 194 201 221 221 207 256 276 216 199 281 233 253 275 282 283 256 230 246 252 243 240 238 238 240 236 230 221 222 231 233 227 227 236 242 229 228 239 255 262 261 270 269 236 246 226 183 200 236 223 227 219 193 185 193 195 180 178 184 174 169 181 191 188 183
331 332 335 337 334 337 344 336 304 306 329 350 348 336 338 337 328 324 283 256 213 152 158 162 158 159 176 189 234 265 300 104 193 229 217 244 271 255 261 263 239 240 255 254 247 238 229 234 237 236 231 225 226 227 224 226 232 242 242 231 225 234 249 258 267 269 259 265 249 202 197 222 228 235 231 208 194 190 197 195 179 175 170 168 177 185 185 184
331 332 333 334 333 336 341 337 319 310 332 347 340 333 335 329 328 314 264 273 149 152 148 133 120 239 216 244 259 260 306 306 245 188 167 238 263 235 238 258 265 260 255 254 249 243 227 225 232 235 235 232 232 228 218 224 233 234 245 252 237 227 234 245 255 264 264 265 262 234 208 216 229 229 229 216 208 201 199 200 184 167 167 173 179 185 187 186
332 331 328 328 330 338 342 337 336 314 320 335 327 323 327 317 310 266 260 287 145 158 134 129 153 196 221 239 229 235 278 266 240 122 177 241 235 233 256 266 276 279 270 264 262 260 246 225 224 232 238 233 233 237 223 222 232 229 245 262 260 239 234 239 242 250 260 257 255 245 227 230 233 219 221 218 214 211 202 198 187 174 174 177 182 187 186 184
332 328 326 324 328 339 319 306 332 332 312 318 320 319 312 296 277 244 240 231 155 145 139 152 145 158 219 249 209 191 255 253 264 300 240 244 219 217 258 269 269 280 274 270 268 269 274 266 243 229 237 239 230 236 232 226 227 224 236 251 251 241 242 258 249 238 249 249 247 247 241 245 245 217 216 221 215 209 206 201 189 183 179 175 177 182 184 184
330 327 324 319 321 320 271 272 328 338 302 306 319 315 293 268 244 256 245 141 142 150 163 154 97 167 223 276 224 163 242 238 253 276 246 238 216 207 234 239 234 251 255 258 259 263 273 275 264 232 233 242 232 230 238 229 219 219 227 237 240 226 216 247 249 238 241 238 238 239 241 248 251 239 221 209 212 220 215 197 191 191 175 169 176 182 184 184
330 325 320 316 317 305 257 270 318 319 302 311 320 303 281 248 224 245 223 172 197 161 146 110 81 118 308 291 241 134 292 241 147 281 273 267 246 219 228 224 231 265 249 243 238 240 250 256 262 247 227 233 232 220 232 230 212 218 226 229 231 216 208 221 221 225 235 237 237 232 236 244 246 256 252 220 209 224 236 209 190 191 172 166 177 183 180 182
330 324 322 326 334 349 334 307 312 318 319 318 304 280 271 257 237 247 231 174 80 57 50 75 79 334 321 282 239 100 287 261 123 296 296 291 282 262 223 35 2 303 279 296 276 242 232 228 238 250 230 217 227 222 217 218 209 213 218 217 222 217 209 215 216 224 234 234 232 227 233 240 237 248 253 247 225 209 231 230 188 187 185 172 173 180 180 181
329 328 337 359 15 13 6 343 321 320 316 305 285 259 251 255 268 312 343 81 70 53 138 72 318 272 254 265 26 61 264 257 101 306 311 260 258 263 198 57 22 320 294 308 301 275 261 232 215 227 230 211 218 227 231 228 214 211 217 219 222 224 224 223 212 216 231 234 224 219 224 234 233 231 233 248 253 223 221 221 191 186 183 169 169 177 178 177
333 343 357 11 11 3 359 338 307 301 297 284 266 256 250 256 306 5 10 43 45 357 43 67 279 267 239 223 135 128 271 300 135 267 283 251 242 356 46 52 34 357 326 307 315 314 294 284 223 206 215 218 213 215 230 245 234 199 205 223 223 222 232 246 248 241 239 239 226 213 215 229 235 238 225 227 244 247 237 221 204 177 153 155 169 179 181 180
343 348 337 338 345 341 333 301 284 278 273 264 254 252 251 292 359 22 5 354 6 359 340 301 253 252 233 199 174 148 144 253 232 233 270 254 251 64 77 57 32 12 356 334 316 324 305 299 306 262 229 230 223 208 206 231 249 202 199 218 224 227 234 244 259 265 258 247 234 218 216 219 222 232 228 215 220 234 241 243 230 181 158 163 172 179 188 183
5 25 310 294 332 343 325 287 276 245 240 251 258 272 274 358 10 12 3 342 349 352 313 292 247 277 286 238 168 128 123 241 255 274 266 225 209 354 91 92 60 33 9 351 314 315 323 304 306 308 287 258 241 224 202 213 238 244 213 203 207 227 239 247 254 255 252 248 238 230 226 216 209 215 214 212 216 214 213 236 244 199 172 168 168 175 185 184
14 36 347 282 356 352 331 287 248 227 233 246 259 274 275 14 25 12 5 342 333 331 297 290 5 335 292 291 47 82 90 286 52 22 276 229 100 13 23 64 47 35 12 351 325 312 325 304 292 297 296 286 257 234 210 206 223 244 252 226 213 221 221 230 245 242 243 248 240 234 235 225 209 207 201 204 213 207 204 223 237 213 172 159 163 173 182 189
341 317 299 35 356 343 333 280 243 250 248 255 272 291 290 40 41 15 358 349 331 309 304 325 3 307 266 303 356 0 297 322 4 317 290 335 67 43 30 6 351 11 10 352 328 312 312 295 291 295 295 302 284 238 223 207 211 235 254 253 250 248 229 218 224 236 244 250 248 236 235 236 218 207 201 197 204 208 209 215 213 210 188 163 165 175 182 192
312 284 85 34 349 335 301 263 264 262 252 264 292 323 349 39 56 28 359 350 329 310 334 345 348 324 308 326 346 320 328 42 322 296 318 347 335 82 49 27 5 356 358 342 309 297 290 275 282 287 291 300 285 238 234 222 204 216 238 247 247 250 251 235 216 220 235 245 252 247 236 235 234 223 200 180 191 203 211 218 201 196 199 182 175 182 188 193
301 277 47 21 346 3 289 273 267 260 250 292 303 323 24 15 17 42 35 337 320 353 345 313 320 345 326 328 20 2 356 8 301 300 289 291 321 58 32 25 17 355 350 325 299 314 302 280 283 281 285 285 267 262 266 255 238 220 221 235 236 232 240 237 219 211 222 237 246 259 251 229 238 239 200 171 189 197 200 219 217 202 205 199 189 188 187 187
292 286 34 16 13 29 298 285 277 268 295 18 330 25 49 353 316 26 76 344 330 20 287 285 323 330 312 341 9 356 339 306 301 298 285 297 56 64 38 28 12 345 344 312 300 358 353 299 281 277 277 280 284 297 304 292 277 258 246 243 232 226 226 230 233 216 212 225 232 253 263 243 353 316 195 180 189 186 188 205 218 215 217 215 205 196 189 185
322 47 59 32 14 322 290 292 349 311 8 7 319 44 42 325 322 3 32 201 250 279 275 78 65 323 311 31 359 319 309 296 281 300 305 303 68 64 40 37 18 340 337 322 310 1 356 284 265 275 276 282 288 292 294 289 281 269 273 278 256 241 228 222 244 241 221 218 215 233 256 239 7 13 201 187 169 162 181 197 207 211 212 220 223 215 199 187
336 3 26 59 44 339 291 346 8 3 40 348 339 74 40 316 358 352 345 44 9 309 315 60 42 4 1 6 343 313 319 313 280 325 325 300 34 33 3 11 25 343 335 11 0 355 344 276 272 274 264 266 266 266 270 271 273 276 278 284 288 271 243 226 254 266 246 228 216 214 233 237 299 37 29 246 168 145 153 182 207 212 201 204 220 233 217 192
310 313 322 18 50 19 4 41 356 5 45 333 26 59 325 147 42 353 347 9 10 344 347 12 349 335 326 324 320 306 304 299 288 311 326 308 337 360 335 335 6 343 341 28 5 327 304 288 291 273 254 248 235 240 281 286 290 297 278 275 289 283 259 242 270 278 256 244 237 223 219 237 230 165 164 199 198 165 69 53 6 239 194 147 61 3 341 183
305 336 344 347 5 4 22 32 7 6 23 327 11 15 341 36 95 63 348 351 19 339 318 334 343 310 270 303 308 310 300 291 299 309 312 300 297 313 313 317 324 295 295 338 334 306 284 273 273 268 266 268 273 298 316 316 310 298 290 290 293 294 286 270 254 256 262 260 252 238 239 260 261 196 182 184 170 66 56 51 29 6 26 54 47 30 32 107
321 12 11 346 348 3 20 20 10 12 11 8 29 342 321 343 83 99 45 340 335 297 304 16 4 320 332 330 315 318 305 298 309 307 297 293 294 294 288 282 284 283 284 291 287 278 272 264 260 261 263 268 278 290 296 297 294 285 285 289 293 303 310 305 288 286 296 279 245 226 236 261 7 23 24 82 71 47 42 40 30 25 20 26 39 48 46 56
352 32 41 4 335 2 22 17 11 18 18 20 26 298 302 357 350 20 94 285 289 339 19 34 328 306 331 332 319 315 307 301 304 301 296 297 299 299 295 282 276 270 263 269 267 262 265 266 262 261 261 264 268 275 280 280 279 277 272 274 287 298 299 299 297 294 296 283 251 245 260 232 89 45 17 37 55 55 47 33 28 37 31 17 14 29 40 44
1 16 38 17 351 17 36 42 22 24 31 14 357 314 326 355 12 1 52 286 292 28 29 318 305 333 322 315 313 304 302 299 295 301 307 304 300 302 304 298 279 255 264 269 269 273 275 274 274 271 268 267 265 268 279 282 280 277 269 267 284 291 286 287 289 289 294 280 252 261 295 272 151 114 63 32 35 38 43 35 32 35 27 13 4 11 23 22
7 8 11 357 25 32 9 43 37 22 91 348 286 49 345 327 9 6 348 316 306 350 8 313 313 324 313 311 306 289 292 300 295 297 300 297 299 299 297 299 297 288 284 275 265 260 255 271 285 284 277 273 270 268 270 269 268 266 260 262 277 281 279 283 282 283 292 275 244 244 287 282 193 142 104 46 28 21 32 34 27 20 8 360 355 357 14 16
18 27 1 327 15 28 311 0 37 320 126 92 2 42 3 323 6 332 300 316 320 321 336 315 309 311 305 303 298 296 309 312 295 288 291 291 291 292 292 292 293 289 277 268 259 237 232 259 279 283 277 275 275 271 264 259 260 261 259 265 273 270 266 272 275 276 281 267 244 239 269 277 220 89 45 36 18 22 34 21 1 3 0 356 357 4 21 21
15 26 9 324 348 78 306 346 37 342 15 56 37 30 349 323 356 323 301 319 318 310 324 315 309 308 299 296 304 311 311 304 293 290 292 290 285 284 281 275 275 278 271 267 266 252 252 263 261 260 268 273 275 277 274 265 257 255 256 257 255 254 256 263 271 271 267 262 255 251 267 275 55 59 37 28 32 36 30 4 356 11 17 16 18 19 19 16